Location: Albany
(35.0170°S, 117.8920°E)
Time: 01:28:34
(UTC+08:00)

Explorer 7 - Pass Details

Date: 27 January 2021
Orbit: 484 x 677 km, 50.3° (Epoch: 01 March)

Event Time Altitude Azimuth Distance (km) Brightness Sun altitude
Rises 20:04:04 0° 224° (SW) 2,962 12.3 -9.0°
Reaches altitude 10° 20:07:04 10° 206° (SSW) 2,013 10.6 -9.6°
Maximum altitude 20:10:22 19° 160° (SSE) 1,464 9.1 -10.1°
Drops below altitude 10° 20:13:33 10° 113° (ESE) 1,916 9.2 -10.7°
Enters shadow 20:14:40 - 104° (ESE) 2,234 9.5 -10.9°
Sets 20:16:18 0° 95° (E) 2,769 - -11.2°
